Simultaneous Nadir Overpasses (SNOs) Predictions

Prediction of SNOs between GOES-15 and METOP-C Satellite Orbit:

Table of predicted SNOs for the next 14.0 days since TLE Epoch: 1/4/2022
Index Date Time (GOES-15) GOES-15 Lat,Lon METOP-C Lat,Lon Distance(km) Time Diff (sec)
1 01/04/2022 18:02:22 -0.07,-128.23 -0.12,-128.10 15.07 80
2 01/07/2022 06:00:44 0.06,-128.27 0.19,-127.70 64.53 80
3 01/08/2022 18:22:15 -0.05,-128.30 0.84,-132.25 450.96 80
4 01/09/2022 17:58:57 -0.06,-128.32 -0.31,-127.27 119.87 80
5 01/11/2022 06:20:38 0.05,-128.33 -0.72,-131.87 401.93 80
6 01/12/2022 05:57:19 0.05,-128.35 0.37,-126.87 168.52 80
7 01/13/2022 18:18:50 -0.04,-128.37 0.64,-131.43 347.88 80
8 01/14/2022 17:55:30 -0.05,-128.38 -0.46,-126.43 222.26 80
9 01/16/2022 06:17:12 0.04,-128.39 -0.58,-131.02 300.77 80
10 01/17/2022 05:53:53 0.04,-128.40 0.58,-126.04 269.03 80
